COSMOS 1275 DEB, 12674

Orbit data source: Space-Track

COSMOS 1275 DEB, 12674 is space debris in LEO originally from a launch on Thu, 04 Jun 1981 UTC launched from the Plesetsk Missile And Space Complex (PKMTR). Debris objects in space refer to the collection of defunct objects orbiting the Earth. Examples of debris include non-operational satellites, rocket bodies, and fragments generated from explosions, collisions, or faulty payload assembly.

Loading next visibility...
Identifier
12674, 1981-053AE
Orbit
LEO
Country
Flag of CISCIS
Related business
Manufacturer
Unknown
Mission
Spacecraft
Bus & Motor
Unknown
Mass
Unknown
Launch date (UTC)
1981-06-04 (44 years ago)
Launch vehicle
Unknown
Launch site
Plesetsk Missile And Space Complex (PKMTR)
Object type
Payload
Rocket body
Debris
Shape & HBR
Unknown
Radar Cross Section
Medium (>0.1 m² and <1 m²)

Expand to show TLE details & history
Last TLE update: 1 day ago

TLE from 1 day ago
0 COSMOS 1275 DEB
1 12674U 81053AE  25260.92260809  .00000619  00000-0  61187-3 0  9990
2 12674  82.9373 208.2130 0102952  23.2507  36.3543 13.74718946202411
Epoch: 2025-09-17T22:08Z
TLE epoch observation values (Epoch: 2025-09-17T22:08:33.338Z)
Latitude
59.65242°
Longitude
-108.86526°
Altitude
932.042 km
Speed
7.422 km/s
True Right ascension
14h 41m 27s
True Declination
59° 30' 21"
Sunlit
Object was in daylight at epoch
Visualization orbit readout
Latitude
Unknown
Longitude
Unknown
Altitude
Unknown
Speed
Unknown
Apparent Right ascension
Unknown
Apparent Declination
Unknown
Sunlit
N/A
Visualization observer readout
Local Sidereal Time
17:27:42
Azimuth
Unknown
Elevation
Unknown
Doppler factor
Unknown
Orbital elements
Apogee altitude
1,055.579 km
Perigee altitude
904.075 km
Semi-major axis
7,357.964 km
Eccentricity
0.0103
Inclination
82.9373°
RAAN
208.213°
Arg. of periapsis
23.2507°
True anomaly
37.06093°
Mean anomaly
36.3543°
Eccentric anomaly
36.70688°
Mean motion
3.4388 °/min
Orbital period
104.69 mins
BSTAR
0.00061187
Loading maneuver chart data...
Computing Atmospheric mass density...
Loading historical data...
Loading historical data...
Loading historical data...
Loading historical data...
Loading historical data...
Loading historical data...
Loading historical data...

Documentation

Showing up to 5 results
|